[[{"header":{"parameterUnit":"m.s-1","parameterCategory":1,"la1":30.2992,"la2":30.254,"lo1":-89.0895,"lo2":-89.0443,"dy":0.0025,"dx":0.0025,"nx":19,"ny":19,"refTime":"2026-03-20T09:00:00:Z","depth":0,"parameterNumber":2,"parameterNumberName":"U-component_of_WINDS"},"data":[0,0,0,3.7519,3.7523,3.7697,3.7698,3.793,3.7932,0,0,0,0,0,0,0,0,0,0,0,3.7473,3.7474,3.7518,3.7523,3.7697,3.7698,3.7929,3.7932,0,0,0,0,0,0,0,0,0,0,0,3.7472,3.7474,3.7476,3.7524,3.7697,3.7698,3.7929,3.7794,0,0,0,0,0,0,0,0,0,0,3.7623,3.7586,3.7473,3.7476,3.7525,3.7697,3.7698,3.7787,3.7802,3.7854,0,3.7902,0,3.7921,3.7948,3.7949,0,0,0,3.7519,3.7573,3.7615,3.7476,3.7526,3.7697,3.7618,3.7796,3.7813,3.7874,3.7905,3.7914,3.7924,3.7949,3.7951,3.8263,3.8265,0,0,3.7509,3.7507,3.7604,3.7627,3.76,3.7612,3.7623,3.7806,3.7839,3.7906,3.7919,3.7928,3.7951,3.7953,3.8262,3.8264,0,0,0,3.7484,3.75,3.7538,3.7617,3.7648,3.7617,3.763,3.7831,3.7844,3.7921,3.7931,3.7952,3.7955,3.826,3.8262,3.8342,0,0,0,3.7478,3.7486,3.7534,3.7534,3.7645,3.7742,3.7651,3.7831,3.7852,3.793,3.7953,3.7958,3.8258,3.8261,3.8336,3.8381,0,0,0,3.7459,3.7483,3.751,3.7533,3.7608,3.7739,3.7762,3.7836,3.7858,3.7949,3.7958,3.8257,3.8261,3.8331,3.8372,3.8463,0,0,0,3.7438,3.7579,3.7512,3.7672,3.7607,3.7787,3.7761,3.7895,3.7982,3.7954,3.8258,3.8262,3.8329,3.8366,3.8457,3.854,3.8574,0,0,3.7614,3.76,3.7695,3.764,3.7831,3.776,3.7963,3.8046,3.8056,3.8193,3.8201,3.8338,3.8371,3.8462,3.8763,3.879,0,0,0,3.775,3.7818,3.7869,3.7952,3.8018,3.8078,3.813,3.816,3.8277,3.8126,3.8395,3.8415,3.8468,3.8508,3.8531,3.8577,3.828,3.828,3.8279,3.7996,3.8002,3.8159,3.8186,3.8267,3.8318,3.8384,3.8434,3.8416,3.8479,3.8521,3.8703,3.8749,3.8767,3.8814,3.8564,3.8564,3.8564,3.8565,3.8256,3.8354,3.8326,3.8469,3.8474,3.8594,3.8648,3.8632,3.8744,3.8672,3.8719,3.8642,3.8796,3.8838,3.8571,3.857,3.8569,3.8568,3.8568,3.8419,3.8467,3.8501,3.8622,3.8714,3.8735,3.8845,3.8845,3.8846,3.8892,3.8936,3.8935,3.8935,3.8913,3.8914,3.8914,3.8915,3.8915,3.8916,3.8576,3.8612,3.8704,3.8785,3.8838,3.8908,3.896,3.9012,3.907,3.9062,3.9062,3.9039,3.881,3.8753,3.8926,3.8924,3.8923,3.8922,3.8921,3.884,3.878,3.8922,3.8976,3.9071,3.9162,3.916,3.9266,3.9309,3.9363,3.9329,3.9159,3.9144,3.9126,3.9079,3.9327,3.9327,3.9327,3.9327,3.8979,3.8971,3.9116,3.9201,3.9284,3.9297,3.9457,3.9498,3.9531,3.9558,3.9522,3.9459,3.944,3.9437,3.9412,3.9368,3.9684,3.9684,3.9684,3.9141,3.9141,3.9279,3.931,3.9384,3.9447,3.9598,3.9696,3.9721,3.9699,3.9579,3.9564,3.9463,3.9429,3.9406,3.9367,3.9287,0,0]},{"header":{"parameterUnit":"m.s-1","parameterCategory":1,"la1":30.2992,"la2":30.254,"lo1":-89.0895,"lo2":-89.0443,"dy":0.0025,"dx":0.0025,"nx":19,"ny":19,"refTime":"2026-03-20T09:00:00:Z","depth":0,"parameterNumber":3,"parameterNumberName":"V-component_of_WINDS"},"data":[0,0,0,0.9879,0.988,0.9931,0.9931,0.9986,0.9986,0,0,0,0,0,0,0,0,0,0,0,0.986,0.986,0.9879,0.988,0.9931,0.9931,0.9985,0.9986,0,0,0,0,0,0,0,0,0,0,0,0.986,0.986,0.986,0.988,0.9931,0.9931,0.9985,0.995,0,0,0,0,0,0,0,0,0,0,0.9903,0.9881,0.986,0.986,0.9881,0.9931,0.9931,0.9949,0.9953,0.9959,0,0.9965,0,0.9976,0.9989,0.9989,0,0,0,0.9883,0.9878,0.9896,0.986,0.9881,0.993,0.9909,0.9951,0.9955,0.9964,0.9966,0.9968,0.9977,0.9989,0.999,1.0022,1.0022,0,0,0.988,0.9866,0.9893,0.9898,0.9892,0.9907,0.991,0.9954,0.9954,0.9966,0.997,0.9978,0.999,0.999,1.0022,1.0022,0,0,0,0.987,0.9864,0.9881,0.9896,0.9906,0.9908,0.9912,0.9952,0.9959,0.997,0.9979,0.999,0.9991,1.0022,1.0022,1.001,0,0,0,0.9869,0.9858,0.988,0.9871,0.9905,0.993,0.991,0.9956,0.9962,0.9979,0.999,0.9991,1.0022,1.0022,1.001,1.0006,0,0,0,0.9858,0.9857,0.9863,0.9871,0.9892,0.993,0.9939,0.9958,0.9967,0.9989,0.9991,1.0022,1.0022,1.001,1.0007,1.0011,0,0,0,0.9842,0.9851,0.9863,0.9876,0.9892,0.9923,0.9939,0.9962,0.998,0.999,1.0022,1.0022,1.0011,1.0007,1.0011,1.0012,1.0011,0,0,0.9845,0.9851,0.986,0.9872,0.9897,0.9916,0.9939,0.9968,0.9982,1.0007,1.0008,1.001,1.0007,1.0011,1.0011,1.001,0,0,0,0.9856,0.9862,0.9872,0.989,0.9913,0.9932,0.996,0.997,0.9993,0.9993,1.0013,1.0012,1.0015,1.0016,1.0015,1.0018,1.0022,1.0022,1.0022,0.984,0.9859,0.9875,0.99,0.9917,0.9945,0.996,0.9979,0.9992,0.9996,1.0004,1.0002,1.0003,1.0002,1.0006,1.0006,1.0006,1.0006,1.0006,0.9846,0.9858,0.9877,0.9899,0.9919,0.9937,0.9965,0.9973,0.9992,0.9998,1.0001,1.0006,1.0001,1.0005,1.0005,1.0005,1.0005,1.0005,1.0006,0.9838,0.9847,0.9861,0.9889,0.9908,0.9932,0.995,0.9967,0.9983,0.9986,0.9996,0.9996,0.9999,0.999,0.999,0.999,0.999,0.999,0.999,0.9824,0.984,0.9854,0.9881,0.9894,0.9914,0.9943,0.9956,0.9975,0.9986,0.9986,0.9998,0.9997,0.9997,0.999,0.999,0.999,0.999,0.999,0.9823,0.9826,0.9848,0.9862,0.9894,0.9912,0.9933,0.9959,0.9973,0.9981,0.9993,0.9989,0.9996,0.9996,0.9996,0.9989,0.9989,0.9989,0.9989,0.9816,0.9822,0.9848,0.9869,0.9892,0.9914,0.9936,0.9959,0.9982,0.9991,0.9994,0.9995,0.9995,1.0001,1.0002,1.0002,0.9997,0.9997,0.9997,0.9817,0.9826,0.9842,0.9867,0.9894,0.9916,0.9938,0.996,0.9986,0.9997,0.9998,0.9998,1.0,0.9999,1.001,1.001,1.001,0,0]}]]